TimeMST,TemperatureF,Dew PointF,Humidity,Sea Level PressureIn,VisibilityMPH,Wind Direction,Wind SpeedMPH,Gust SpeedMPH,PrecipitationIn,Events,Conditions,WindDirDegrees,DateUTC
12:55 AM,57.9,16.0,19,30.12,10.0,North,9.2,-,N/A,,Partly Cloudy,360,2013-01-19 07:55:00
1:55 AM,55.9,16.0,21,30.13,10.0,North,8.1,-,N/A,,Partly Cloudy,350,2013-01-19 08:55:00
2:55 AM,57.9,16.0,19,30.13,10.0,North,9.2,-,N/A,,Partly Cloudy,10,2013-01-19 09:55:00
3:55 AM,57.0,15.1,19,30.13,10.0,North,9.2,-,N/A,,Partly Cloudy,360,2013-01-19 10:55:00
4:55 AM,55.9,16.0,21,30.14,10.0,North,10.4,-,N/A,,Partly Cloudy,360,2013-01-19 11:55:00
5:55 AM,55.0,16.0,22,30.15,10.0,North,8.1,-,N/A,,Partly Cloudy,10,2013-01-19 12:55:00
6:55 AM,52.0,17.1,25,30.17,10.0,East,3.5,-,N/A,,Partly Cloudy,90,2013-01-19 13:55:00
7:55 AM,52.0,17.1,25,30.19,10.0,North,6.9,-,N/A,,Partly Cloudy,360,2013-01-19 14:55:00
8:55 AM,57.9,16.0,19,30.21,10.0,North,11.5,-,N/A,,Partly Cloudy,360,2013-01-19 15:55:00
9:55 AM,62.1,18.0,18,30.23,10.0,North,8.1,-,N/A,,Partly Cloudy,10,2013-01-19 16:55:00
10:55 AM,66.0,17.1,15,30.24,10.0,North,13.8,-,N/A,,Partly Cloudy,360,2013-01-19 17:55:00
11:55 AM,69.1,16.0,13,30.21,10.0,North,11.5,-,N/A,,Partly Cloudy,360,2013-01-19 18:55:00
12:00 PM,-9999,-9999,N/A,-9999,-9999.0,North,-9999.0,-,N/A,,Unknown,0,2013-01-19 19:00:00
12:55 PM,71.1,17.1,13,30.17,10.0,North,11.5,-,N/A,,Partly Cloudy,10,2013-01-19 19:55:00
1:55 PM,72.0,18.0,13,30.14,10.0,North,12.7,-,N/A,,Partly Cloudy,360,2013-01-19 20:55:00
2:55 PM,73.0,18.0,12,30.13,10.0,North,12.7,-,N/A,,Partly Cloudy,360,2013-01-19 21:55:00
3:55 PM,73.0,18.0,12,30.13,10.0,North,10.4,-,N/A,,Partly Cloudy,10,2013-01-19 22:55:00
4:55 PM,71.1,17.1,13,30.12,10.0,North,10.4,-,N/A,,Partly Cloudy,350,2013-01-19 23:55:00
5:55 PM,68.0,18.0,15,30.12,10.0,North,6.9,-,N/A,,Partly Cloudy,350,2013-01-20 00:55:00
6:55 PM,64.9,17.1,16,30.12,10.0,North,6.9,-,N/A,,Partly Cloudy,360,2013-01-20 01:55:00
7:55 PM,63.0,17.1,17,30.14,10.0,North,5.8,-,N/A,,Partly Cloudy,350,2013-01-20 02:55:00
8:55 PM,61.0,17.1,18,30.14,10.0,North,6.9,-,N/A,,Partly Cloudy,350,2013-01-20 03:55:00
9:55 PM,59.0,18.0,20,30.14,10.0,North,5.8,-,N/A,,Clear,350,2013-01-20 04:55:00
10:55 PM,59.0,17.1,20,30.14,10.0,North,6.9,-,N/A,,Clear,360,2013-01-20 05:55:00
11:55 PM,57.0,16.0,20,30.14,10.0,NW,5.8,-,N/A,,Clear,320,2013-01-20 06:55:00